BATSU-CS1 (IRAZU) (43468 NORAD) Tracking and Keplerian Element Data

This shows tracking and keplerian element data for the satellite.

Feedback or suggestion? Click here.




ElementValue
Catalog43468
NameBATSU-CS1 (IRAZU)
Epoch Orbit12896
Epoch Day317.52930962
Epoch Year2018
RAAN349.9824
Inclination51.64
Eccentricity0.000128
Argument of Perigee24.2484
Mean Anonmoly335.8569
Mean Motion15.5991017
Decay Rate0.00015156
L11 43468U 98067NR 18317.52930962 .00015156 00000-0 19042-3 0 9998
L22 43468 51.6400 349.9824 0001280 24.2484 335.8569 15.59910170128960

Live tracking and technical data element details for BATSU-CS1 (IRAZU) (NORAD 43468). BATSU-CS1 (IRAZU) can be tracked NOW for your location showing map with azimuth and elevation plus other details from your city location.

Track the satellite on the map from your city or location and see movement details for azimuth, elevation, latitude, longitude, range, height, and movement on the map or in text.







IsCatalogInMostPopularTable: catalog: 43468, numindb: 75
Update: records affected: 1



GetName: 43468 BATSU-CS1 (IRAZU)

Hit Count: updated at: Thu, 15 Nov 2018 04:05:42 GMT